YAOGAN 9A

导读

YAOGAN 9A(遥感九号A)是中国研制的遥感卫星,于北京时间2010年3月5日在酒泉卫星发射中心,由长征四号丙运载火箭发射入轨,属于中国遥感卫星系列。该卫星主要服务于科学试验研究、国土资源普查、农作物估产以及防灾减灾等领域,可为国民经济建设提供空间遥感信息支撑,也推动了我国空间遥感技术的应用发展。

基本信息
目录编号:
36413
目录名称:
YAOGAN 9A
国际标识:
2010-009A
轨道中心:
EARTH
卫星名称:
YAOGAN 9A
卫星全名:
--
卫星状态:
在轨 (已飞行6034 天)
发射日期:
2010-03-05 UTC
国别 :
中国 (CN)
星等 :
--
轨道信息
数据来源 国际轨道数据 AOE轨道数据
星历时间 2026-09-11T01:32:28+0800
12小时前
查看轨道信息
2026-09-10T23:00:00+0800
14小时前
查看轨道信息
半长轴 7466.199km 7466.199km
偏心率 0.0544814 0.0544564
轨道倾角 63.363° 63.364°
近地点辐角 22.428° 22.407°
升交点赤经 136.825° 137.100°
平近点角 339.961° 187.059°
近地点 681.293km 681.479km
远地点 1494.831km 1494.645km
周期 107.006分钟 107.006分钟
每日圈数 13.457162 13.457161
详细信息
使用方式:
暂无
2D轨道图
3D轨道图
轨道高度分析图
轨道倾角分析图
轨道综合分析图
查看轨道综合分析图
与全量物体交会距离演化趋势
与全量物体交会风险概率演化趋势